Flight Track Log - Related Links

Times and Time Zones

All times are in EDT time to prevent confusion due to time zone crossing. See the KFA276 flight status page for this flight to view local times or setup timezone preferences in your user account.

Time Position Orientation Groundspeed Altitude Reporting Facility
EDT Latitude Longitude Course Direction KTS MPH feet Rate Location/Type
Wed 02:07:37 AM 49.8833 -97.2333 360° North 10 12 800  Level Winnipeg Center
Wed 02:09:37 AM 49.9167 -97.2333 360° North 150 173 1,300 833 Climbing Winnipeg Center
Wed 02:10:37 AM 49.9500 -97.2333 360° North 140 161 3,300 1,450 Climbing Winnipeg Center
Wed 02:11:37 AM 50.0000 -97.2333 360° North 160 184 4,200 750 Climbing Winnipeg Center
Wed 02:12:37 AM 50.0000 -97.1167 90° East 250 288 4,800 1,350 Climbing Winnipeg Center
Wed 02:13:37 AM 49.9833 -97.0000 102° East 290 334 6,900 2,050 Climbing Winnipeg Center
Wed 02:14:37 AM 49.9667 -96.8833 102° East 290 334 8,900 1,650 Climbing Winnipeg Center
Wed 02:15:37 AM 49.9667 -96.7333 90° East 330 380 10,200 1,000 Climbing Winnipeg Center
Wed 02:16:37 AM 49.9500 -96.5833 100° East 390 449 10,900 1,650 Climbing Winnipeg Center
Wed 02:17:37 AM 49.9333 -96.4000 98° East 410 472 13,500 1,750 Climbing Winnipeg Center
Wed 02:18:37 AM 49.9333 -96.2167 90° East 430 495 14,400 1,750 Climbing Winnipeg Center
Wed 02:19:37 AM 49.9333 -96.0000 90° East 440 506 17,000 2,100 Climbing Winnipeg Center
Wed 02:20:37 AM 49.9167 -95.8167 98° East 440 506 18,600 1,300 Climbing Winnipeg Center
Wed 02:21:37 AM 49.9167 -95.6333 90° East 460 529 19,600 1,150 Climbing Winnipeg Center
Wed 02:22:37 AM 49.9167 -95.4000 90° East 470 541 20,900 1,450 Climbing Winnipeg Center
Wed 02:23:37 AM 49.9333 -95.2167 82° East 490 564 22,500 1,050 Climbing Winnipeg Center
Wed 02:24:37 AM 49.9333 -94.9833 90° East 500 575 23,000 850 Climbing Winnipeg Center
Wed 02:25:37 AM 49.9167 -94.7500 96° East 520 598 24,200 1,067 Climbing Winnipeg Center
Wed 02:27:37 AM 49.9000 -94.3167 93° East 530 610 26,200 900 Climbing Winnipeg Center
Wed 02:28:37 AM 49.9000 -94.0833 90° East 540 621 26,900 700 Climbing Winnipeg Center
Wed 02:29:37 AM 49.8833 -93.8167 95° East 550 633 27,600 600 Climbing Winnipeg Center
Wed 02:30:37 AM 49.8833 -93.5833 90° East 560 644 28,100 900 Climbing Winnipeg Center
Wed 02:31:37 AM 49.8667 -93.3333 96° East 570 656 29,400 900 Climbing Winnipeg Center
Wed 02:32:37 AM 49.8667 -93.1000 90° East 560 644 29,900 700 Climbing Winnipeg Center
Wed 02:33:37 AM 49.8500 -92.8667 96° East 570 656 30,800 950 Climbing Winnipeg Center
Wed 02:34:37 AM 49.8333 -92.6333 96° East 560 644 31,800 750 Climbing Winnipeg Center
Wed 02:35:37 AM 49.7833 -92.4000 108° East 530 610 32,300 450 Climbing Winnipeg Center
Wed 02:36:37 AM 49.7333 -92.2000 111° Southeast 530 610 32,700 300 Climbing Winnipeg Center
Wed 02:37:37 AM 49.6833 -91.9667 108° East 540 621 32,900 150 Climbing Winnipeg Center
Wed 02:38:37 AM 49.6333 -91.7667 111° Southeast 540 621 33,000 50 Climbing Winnipeg Center
Wed 02:39:37 AM 49.5833 -91.5500 110° East 530 610 33,000  Level Winnipeg Center
Wed 02:40:37 AM 49.5333 -91.3167 108° East 530 610 33,000  Level Winnipeg Center
Wed 02:41:37 AM 49.5000 -91.1167 104° East 520 598 33,000  Level Winnipeg Center
Wed 02:42:37 AM 49.4500 -90.8833 108° East 520 598 33,000  Level Winnipeg Center
Wed 02:43:37 AM 49.4000 -90.6833 111° Southeast 510 587 33,000  Level Winnipeg Center
Wed 02:44:37 AM 49.3500 -90.4833 111° Southeast 500 575 33,000  Level Winnipeg Center
Wed 02:45:37 AM 49.3167 -90.2833 104° East 500 575 33,000  Level Winnipeg Center
Wed 02:46:37 AM 49.2667 -90.0833 111° Southeast 490 564 33,000  Level Winnipeg Center
Wed 02:47:37 AM 49.2167 -89.9000 113° Southeast 490 564 33,000  Level Winnipeg Center
Wed 02:48:37 AM 49.1667 -89.7000 111° Southeast 490 564 33,000  Level Winnipeg Center
Wed 02:49:37 AM 49.1500 -89.5000 97° East 490 564 33,000  Level Winnipeg Center
Wed 02:50:37 AM 49.1000 -89.3000 111° Southeast 490 564 33,000  Level Winnipeg Center
Wed 02:51:37 AM 49.0500 -89.1000 111° Southeast 490 564 33,000  Level Winnipeg Center
Wed 02:52:37 AM 49.0000 -88.9333 115° Southeast 490 564 33,000  Level Winnipeg Center
Wed 02:53:37 AM 48.9500 -88.7000 108° East 490 564 33,000  Level Winnipeg Center
Wed 02:54:37 AM 48.9000 -88.5167 112° Southeast 500 575 33,000  Level Winnipeg Center
Wed 02:55:37 AM 48.8500 -88.3167 111° Southeast 500 575 33,000  Level Winnipeg Center
Wed 02:56:37 AM 48.8167 -88.1167 104° East 500 575 33,000  Level Winnipeg Center
Wed 02:57:37 AM 48.7667 -87.9167 111° Southeast 500 575 33,000  Level Winnipeg Center
Wed 02:58:37 AM 48.7167 -87.7333 112° Southeast 510 587 33,000  Level Winnipeg Center
Wed 02:59:37 AM 48.6667 -87.5333 111° Southeast 510 587 33,000  Level Winnipeg Center
Wed 03:00:37 AM 48.6000 -87.3167 115° Southeast 500 575 33,000  Level Winnipeg Center
Wed 03:01:37 AM 48.5500 -87.1167 111° Southeast 500 575 33,000  Level Winnipeg Center
Wed 03:02:37 AM 48.5000 -86.9333 112° Southeast 500 575 33,000  Level Winnipeg Center
Wed 03:03:37 AM 48.4500 -86.7333 111° Southeast 500 575 33,000  Level Winnipeg Center
Wed 03:04:37 AM 48.4000 -86.5500 112° Southeast 510 587 33,000  Level Winnipeg Center
Wed 03:05:37 AM 48.3500 -86.3333 109° East 500 575 33,000  Level Winnipeg Center
Wed 03:06:37 AM 48.3167 -86.1333 104° East 500 575 33,000  Level Winnipeg Center
Wed 03:07:10 AM 48.3000 -86.0667 111° Southeast 510 587 33,000  Level Toronto Center
Wed 03:08:10 AM 48.2833 -85.8667 97° East 510 587 33,000  Level Toronto Center
Wed 03:09:10 AM 48.2500 -85.6667 104° East 510 587 33,000  Level Toronto Center
Wed 03:09:37 AM 48.2167 -85.5167 108° East 510 587 33,000  Level Winnipeg Center
Wed 03:10:37 AM 48.2000 -85.3000 97° East 520 598 33,000  Level Winnipeg Center
Wed 03:11:10 AM 48.1833 -85.2500 117° Southeast 520 598 33,000  Level Toronto Center
Wed 03:12:10 AM 48.1500 -85.0333 103° East 510 587 33,000  Level Toronto Center
Wed 03:13:10 AM 48.1167 -84.8167 103° East 520 598 33,000  Level Toronto Center
Wed 03:14:10 AM 48.0833 -84.6167 104° East 520 598 33,000  Level Toronto Center
Wed 03:15:10 AM 48.0500 -84.4167 104° East 520 598 33,000 -50 Level Toronto Center
Wed 03:16:10 AM 48.0167 -84.1833 102° East 520 598 32,900  Descending Toronto Center
Wed 03:17:10 AM 47.9833 -83.9833 104° East 520 598 33,000 50 Climbing Toronto Center
Wed 03:18:10 AM 47.9500 -83.7833 104° East 520 598 33,000  Level Toronto Center
Wed 03:19:10 AM 47.9000 -83.5833 110° East 520 598 33,000  Level Toronto Center
Wed 03:20:10 AM 47.8500 -83.3833 110° East 520 598 33,000  Level Toronto Center
Wed 03:21:10 AM 47.8333 -83.1500 96° East 520 598 33,000  Level Toronto Center
Wed 03:22:10 AM 47.7833 -82.9500 110° East 520 598 33,000  Level Toronto Center
Wed 03:23:10 AM 47.7500 -82.7500 104° East 510 587 33,000  Level Toronto Center
Wed 03:24:10 AM 47.7167 -82.5500 104° East 510 587 33,000  Level Toronto Center
Wed 03:25:10 AM 47.6667 -82.3500 110° East 510 587 33,000  Level Toronto Center
Wed 03:26:10 AM 47.6333 -82.1500 104° East 510 587 33,000  Level Toronto Center
Wed 03:27:10 AM 47.6167 -81.9500 97° East 510 587 33,000  Level Toronto Center
Wed 03:28:10 AM 47.5667 -81.7333 109° East 500 575 33,000  Level Toronto Center
Wed 03:29:10 AM 47.5333 -81.5500 105° East 510 587 33,000  Level Toronto Center
Wed 03:30:10 AM 47.4833 -81.3333 109° East 500 575 33,000  Level Toronto Center
Wed 03:31:10 AM 47.4500 -81.1667 106° East 500 575 33,000  Level Toronto Center
Wed 03:32:10 AM 47.4167 -80.9667 104° East 500 575 33,000  Level Toronto Center
Wed 03:33:10 AM 47.3833 -80.7333 102° East 500 575 33,000  Level Toronto Center
Wed 03:34:10 AM 47.3500 -80.5667 106° East 500 575 33,000  Level Toronto Center
Wed 03:35:10 AM 47.3167 -80.3500 103° East 500 575 33,000  Level Toronto Center
Wed 03:36:10 AM 47.2833 -80.1667 105° East 500 575 33,000  Level Toronto Center
Wed 03:37:10 AM 47.2333 -79.9833 112° Southeast 500 575 33,000  Level Toronto Center
Wed 03:38:10 AM 47.2000 -79.7833 104° East 500 575 33,000  Level Toronto Center
Wed 03:39:10 AM 47.1500 -79.5833 110° East 500 575 33,000  Level Toronto Center
Wed 03:40:10 AM 47.1000 -79.3833 110° East 490 564 33,000  Level Toronto Center
Wed 03:41:10 AM 47.0667 -79.1833 104° East 500 575 33,000  Level Toronto Center
Wed 03:42:10 AM 47.0333 -79.0000 105° East 500 575 33,000  Level Toronto Center
Wed 03:43:10 AM 46.9833 -78.8000 110° East 490 564 33,000  Level Toronto Center
Wed 03:44:10 AM 46.9500 -78.6333 106° East 490 564 33,000  Level Toronto Center
Wed 03:45:10 AM 46.9000 -78.4333 110° East 490 564 33,000  Level Toronto Center
Wed 03:46:10 AM 46.8333 -78.2500 118° Southeast 490 564 33,000  Level Toronto Center
Wed 03:47:10 AM 46.7833 -78.0500 110° East 490 564 33,000  Level Toronto Center
Wed 03:48:10 AM 46.7333 -77.8833 114° Southeast 490 564 33,000  Level Toronto Center
Wed 03:49:10 AM 46.7000 -77.6833 104° East 490 564 33,000  Level Toronto Center
Wed 03:50:10 AM 46.6333 -77.5000 118° Southeast 490 564 33,000  Level Toronto Center
Wed 03:51:10 AM 46.6000 -77.3333 106° East 490 564 33,000  Level Toronto Center
Wed 03:52:10 AM 46.5167 -77.1333 121° Southeast 500 575 33,000  Level Toronto Center
Wed 03:53:10 AM 46.4833 -76.9667 106° East 500 575 33,000  Level Toronto Center
Wed 03:54:10 AM 46.4333 -76.7500 108° East 500 575 33,000  Level Toronto Center
Wed 03:55:10 AM 46.3667 -76.5833 120° Southeast 490 564 33,000  Level Toronto Center
Wed 03:56:10 AM 46.3167 -76.4000 111° Southeast 500 575 33,000  Level Toronto Center
Wed 03:57:10 AM 46.2667 -76.2000 110° East 500 575 33,000  Level Toronto Center
Wed 03:58:10 AM 46.2167 -76.0333 113° Southeast 500 575 33,000 -500 Level Toronto Center
Wed 03:59:10 AM 46.1500 -75.8500 118° Southeast 490 564 32,000 -2,500 Descending Toronto Center
Wed 04:00:10 AM 46.1000 -75.6667 111° Southeast 490 564 28,000 -3,500 Descending Toronto Center
Wed 04:01:10 AM 46.0500 -75.5000 113° Southeast 480 552 25,000 -2,800 Descending Toronto Center
Wed 04:02:10 AM 46.0000 -75.3333 113° Southeast 460 529 22,400 -3,150 Descending Toronto Center
Wed 04:03:10 AM 45.9500 -75.1667 113° Southeast 440 506 18,700 -2,850 Descending Toronto Center
Wed 04:04:10 AM 45.9000 -75.0000 113° Southeast 430 495 16,700 -2,400 Descending Toronto Center
Wed 04:05:10 AM 45.8667 -74.8667 110° East 400 460 13,900 -2,600 Descending Toronto Center
Wed 04:06:10 AM 45.8333 -74.7333 110° East 380 437 11,500 -1,900 Descending Toronto Center
Wed 04:07:10 AM 45.7667 -74.6167 129° Southeast 350 403 10,100 -1,950 Descending Toronto Center
Wed 04:08:10 AM 45.7500 -74.5000 102° East 300 345 7,600 -1,900 Descending Toronto Center
Wed 04:09:10 AM 45.7167 -74.4000 115° Southeast 280 322 6,300 -1,550 Descending Toronto Center
Wed 04:10:10 AM 45.6667 -74.3167 131° Southeast 270 311 4,500 -1,650 Descending Toronto Center
Wed 04:11:10 AM 45.6333 -74.2167 115° Southeast 260 299 3,000 -1,000 Descending Toronto Center
Wed 04:12:10 AM 45.6167 -74.1167 103° East 250 288 2,500 -650 Descending Toronto Center
Wed 04:13:10 AM 45.6000 -74.0500 110° East 200 230 1,700 -768 Descending Toronto Center
Wed 04:14:15 AM 45.6500 -74.0500 360° North 150 173 900 -720 Descending Montreal Center
Wed 04:15:15 AM 45.6833 -74.0000 46° Northeast 130 150 200 -300 Descending Montreal Center
Wed 04:16:15 AM 45.6833 -74.0000 46° Northeast 10 12 300 100 Climbing Montreal Center

Login

Don't have an account? Register now (free) for customized features, flight alerts, and more!